Starlink 3885

operational
NORAD ID: 52463 Int'l Des: 2022-049 Owner: SPXS Country: US Constellation: starlink
LEOCIRCULAR

About Starlink 3885

Description loading...

Live Position

Loading 3D Globe...

Upcoming Passes

Altitude History

Altitude vs Time

uPlot chart will show altitude changes over time

Two-Line Element Set

1 52463U 22049N 26067.14610428 .00007305 00000-0 47652-3 0 9996
2 52463 53.2172 56.0493 0001217 87.3847 272.7284 15.08845896212154
Epoch: Mar 8, 2026 • Age: 16 hours

Current Status

Altitude 542.6 km
Velocity 7.60 km/s
Sub-Earth Point 39.81°N, 38.67°E
Launch Date May 6, 2022
Age 3.8 years
Type internet

Technical Details

Classification Payload
Mass 297.00 kg
Dry Mass 220.00 kg
Total Mass 297.00 kg
Length 0.20 m
Diameter 2.80 m
Span 9.00 m
Shape Box + pan
Manufacturer SPXS
Bus Type Starlink
Phase Status In Orbit
Owner/State SPXS/US

Large Constellations

Loading constellations...